User: anonymous   Login
Location: Caltech
(34.1382°N, 118.1253°W)
Time: 20:01:57
(UTC-07:00)
Language:

NOSS 3-2 (A) - Orbit

View from above orbital plane
View from above orbital plane
View from above satellite
View from above satellite

Ground track
Ground track

The orbit data is extracted from the following two-line orbital elements,

1 28095U 03054A   14292.85966944 0.00000000  00000-0  00000-0 0    08
2 28095  63.4290 270.5254 0218000 358.3118   1.6882 13.41292984    03
Epoch (UTC): 19 October 2014 20:37:55
Eccentricity: 0.0218000
inclination: 63.4290°
perigee height: 941 km
apogee height: 1267 km
right ascension of ascending node: 270.5254°
argument of perigee: 358.3118°
revolutions per day: 13.41292984
mean anomaly at epoch: 1.6882°
orbit number at epoch: 0

The dashed part of the orbit path shows where the satellite is in the earth's shadow,  

DLR